map of KIGX home
KIGX - Airport
Location
City:  Chapel Hill, North Carolina, United States
Name:Horace Williams Airport
ICAO:KIGX
FAA LID:IGX

Details
Type:Airport (Airfield)
Use:Public/Civil
Latitude:3556'06"N (35.935000)
Longitude:7903'57"W (-79.065916)
Datum:WGS 1984
Elevation:511 ft (156 m)
Variation:8.98W (WMM2015 magnetic declination)
-0.04 annual change
Runways:1
Longest:4005 × 75 ft (1221 × 23 m), paved

Time
Time Zone:UTC-5 (DST-4)
Local Time:

Weather
METAR:KIGX 090256Z AUTO 30007KT 10SM CLR 04/M11 A3023 RMK AO2 SLP235 T00391106 53012

Related Locations
Nearby:
Farthest:MQZ: 11628 mi / 18714 km
Margaret River [Margaret River Airport], WA, AU

Find:

   beyond  
but within

Other Information
Maps:
NOTAMs:
Links:
Sources:

  
flag of United States
flag of North Carolina
  

Sectional Chart

Flight Planning
at skyvector.com

Satellite Image

Google Maps Satellite view

 

Copyright © 2004-2016 Karl L. Swartz. All rights reserved.
The Great Circle Mapper name and logo are trademarks of the Great Circle Mapper.
All other trademarks mentioned herein belong to their respective owners.
Please see credits for attibutions and further copyright information.

  Follow gcmap on Facebook Follow gcmap on Twitter Follow gcmap on Google+ GCmap on LinkedIn

hCard Microformat

Geo Microformat